Regional Weather Roundup
Issued by NWS

Home | Current Version | Previous Version | Graphics & Text | Print | Product List | Glossary Off
Versions: 1 2 3 4 5 6 7 8 9 10 11 12 13 14 15 16 17 18 19 20 21 22 23 24 25 26 27 28 29 30 31 32 33 34 35 36 37 38 39 40 41 42 43 44 45 46 47 48 49 50

000
ASUS43 KMKX 181200
RWRWI

WISCONSIN REGIONAL WEATHER ROUNDUP
NATIONAL WEATHER SERVICE MILWAUKEE/SULLIVAN WI
700 AM CDT SAT APR 18 2015

NOTE: "FAIR" INDICATES FEW OR NO CLOUDS BELOW 12,000 FEET WITH NO
SIGNIFICANT WEATHER AND/OR OBSTRUCTIONS TO VISIBILITY.

WIZ001-002-006>008-014>016-023>028-181300-
NORTHWEST WISCONSIN

CITY           SKY/WX    TMP DP  RH WIND       PRES   REMARKS
SUPERIOR ARPT  CLEAR     40  32  74 E15G21    30.21R WCI  32
ASHLAND        CLEAR     38  33  82 NE13      30.22R WCI  30
6HR MIN TEMP:  33; 6HR MAX TEMP:  51;

HAYWARD        CLEAR     42  32  67 E6        30.17R
6HR MIN TEMP:  40; 6HR MAX TEMP:  53;

SIREN          CLEAR     44  31  59 E8        30.15R
CUMBERLAND     CLEAR     43  32  65 NE7       30.13R
RICE LAKE      CLEAR     40  31  69 NE5       30.15R
CHETEK         CLEAR     47  32  56 NE6       30.14R
LADYSMITH      CLEAR     44  32  63 NE9       30.16R
EAU CLAIRE     PTCLDY    47  31  53 NE7       30.11S
6HR MIN TEMP:  40; 6HR MAX TEMP:  47;

MENOMONIE      PTCLDY    49  29  46 N6        30.11S
NEW RICHMOND   CLEAR     44  30  59 NE6       30.11S
OSCEOLA        PTCLDY    48  32  53 E7        30.14S
$$

WIZ003>005-009-010-017-018-181300-
NORTH CENTRAL WISCONSIN

CITY           SKY/WX    TMP DP  RH WIND       PRES   REMARKS
MANITOWISH WTR CLEAR     36  32  85 NE10      30.17R WCI  29
ARBOR VITAE    CLEAR     39  32  75 NE6       30.17R HAZE    WCI  35
WOODRUFF       CLEAR     39  32  75 NE6       30.17R HAZE    WCI  35
RHINELANDER    CLEAR     41  32  70 NE9       30.17R
6HR MIN TEMP:  40; 6HR MAX TEMP:  55;

EAGLE RIVER    CLEAR     37  31  77 NE7       30.17R WCI  32
LAND O LAKES   CLEAR     36  32  85 NE7       30.19R WCI  31
PHILLIPS       CLEAR     39  32  77 NE7       30.14R WCI  34
TOMAHAWK       CLEAR     42  32  68 CALM      30.15R
MEDFORD        CLEAR     43  32  63 NE9       30.14R
MERRILL        CLEAR     40  30  68 E6        30.15R
$$

WIZ029-030-035-036-043>047-181300-
CENTRAL WISCONSIN

CITY           SKY/WX    TMP DP  RH WIND       PRES   REMARKS
WAUSAU         CLEAR     47  31  53 NE5       30.13R
6HR MIN TEMP:  47; 6HR MAX TEMP:  53;

MOSINEE        CLEAR     45  30  57 NE8       30.15R
MARSHFIELD     PTCLDY    49  31  49 NE12      30.12R
6HR MIN TEMP:  48; 6HR MAX TEMP:  55;

STEVENS POINT  CLEAR     44  29  57 NE6       30.13R
WAUPACA        CLEAR     50  32  50 NE6       30.14R
WAUTOMA        NOT AVBL
WISC RAPIDS    PTCLDY    51  29  42 E9        30.13R
6HR MIN TEMP:  42; 6HR MAX TEMP:  57;

CAMP DOUGLAS   NOT AVBL
$$

WIZ011>013-019>022-031-037>040-048>050-181300-
NORTHEAST WISCONSIN

CITY           SKY/WX    TMP DP  RH WIND       PRES   REMARKS
ANTIGO         CLEAR     40  33  75 NE8       30.15R WCI  35
SHAWANO        CLEAR     49  35  57 NE16      30.15R
OCONTO         FAIR      44  35  72 N5        30.16R
STURGEON BAY   CLEAR     43  34  70 N13       30.18R
6HR MIN TEMP:  39; 6HR MAX TEMP:  48;

GREEN BAY      CLEAR     47  37  68 NE15      30.16R
6HR MIN TEMP:  44; 6HR MAX TEMP:  53;

MANITOWOC      NOT AVBL
APPLETON       NOT AVBL
CLINTONVILLE   CLEAR     46  32  57 NE9       30.14R
OSHKOSH        PTCLDY    49  37  63 NE16      30.12R
6HR MIN TEMP:  44; 6HR MAX TEMP:  59;

$$

WIZ032>034-041-042-053>061-181300-
SOUTHWEST WISCONSIN

CITY           SKY/WX    TMP DP  RH WIND       PRES   REMARKS
LA CROSSE      PTCLDY    47  43  86 CALM      30.08R
6HR MIN TEMP:  45; 6HR MAX TEMP:  57;

SPARTA         PTCLDY    33  33  99 CALM      30.10R
VIROQUA        PTCLDY    53  32  44 NE9       30.06S
BOSCOBEL       PTCLDY    48  44  86 CALM      30.06R
6HR MIN TEMP:  44; 6HR MAX TEMP:  51;

PRAIRIE DU CHI CLEAR     47  43  85 CALM      30.05R
PLATTEVILLE    CLEAR     57  41  54 NE13      30.03S
$$

WIZ056-057-062-063-064-067-068-181300-
SOUTH CENTRAL WISCONSIN

CITY           SKY/WX    TMP DP  RH WIND       PRES   REMARKS
REEDSBURG      CLEAR     44  42  93 CALM      30.08R
BARABOO/DELLS  CLEAR     51  38  60 N6        30.08R
LONE ROCK      NOT AVBL
MINERAL POINT  CLEAR     59  36  41 NE8       30.05R
MADISON        MOCLDY    47  44  90 N6        30.07R
6HR MIN TEMP:  44; 6HR MAX TEMP:  54;

MIDDLETON      CLEAR     46  42  87 CALM      30.06R
WATERTOWN      CLEAR     43  43  99 CALM      30.05R
MONROE         PTCLDY    55  43  62 NE8       30.05R
JANESVILLE     NOT AVBL
$$

WIZ051-052-058>065-066-070>072-181300-
SOUTHEAST WISCONSIN

CITY           SKY/WX    TMP DP  RH WIND       PRES   REMARKS
MILWAUKEE      PTCLDY    51  39  63 N25G37    30.09R
6HR MIN TEMP:  50; 6HR MAX TEMP:  58;

WAUKESHA       NOT AVBL
MILWAUKEE/TIMM CLEAR     54  39  58 NE18G26   30.08R
RACINE         PTCLDY    59  41  51 N25G35    30.09R
6HR MIN TEMP:  48; 6HR MAX TEMP:  60;

BURLINGTON     PTCLDY    44  42  95 CALM      30.05R
KENOSHA        PTCLDY    56  44  64 N6        30.05R
6HR MIN TEMP:  48; 6HR MAX TEMP:  57;

FOND DU LAC    PTCLDY    50  36  58 NE16G24   30.12R
6HR MIN TEMP:  42; 6HR MAX TEMP:  55;

SHEBOYGAN      CLEAR     46  37  71 NE16      30.13R
6HR MIN TEMP:  45; 6HR MAX TEMP:  54;

WEST BEND      CLEAR     50  36  57 NE13G23   30.10R
JUNEAU         CLEAR     50  44  79 N10       30.09R
$$

LSZ147-162-181300-
LAKE SUPERIOR

STATION/POSITION TIME  TEMP    WIND        PRES    WAVE
                       AIR SEA DIR/SP/G            HT/PER
                 (UTC) (F)     (DEG/KT/KT) (MB)    (FT/S)
DEVILS ISLAND    1100   37     110/  9/ 10 1024.6R
PORT WING        1100   41      60/ 10/ 14 1022.7S
SAXON HARBOR     1100   41      CALM  / 10 1022.7
$$

LMZ867-665-643>646-181300-
LAKE MICHIGAN

STATION/POSITION TIME  TEMP    WIND        PRES    WAVE
                       AIR SEA DIR/SP/G            HT/PER
                 (UTC) (F)     (DEG/KT/KT) (MB)    (FT/S)
CHAMBERS ISLAND  1100   40     350/ 12/ 16 1020.7R
NORTHPORT PIER   1100   39     340/ 15/ 17 1020.3R
SISTER BAY       1017   42      10/ 22/ 31   N/A
KEWAUNEE LAKESHO 1100   45      10/ 11/ 16 1019.1R
SHEBOYGAN LAKESH 1100   46      10/ 23/ 25 1019.9R
PORT WASHINGTON  1100   58      30/ 14/ 19 1018.6R
MILWAUKEE LAKESH 1100   61     360/ 11/ 15   N/A
KENOSHA   LAKESH 1100   58     340/  7/  8 1016.6R
$$

TC  - TEMPERATURE IN CELSIUS
VSB - VISIBILITY IN STATUTE MILES
WCI - WIND CHILL INDEX
HX  - HEAT INDEX




USA.gov is the U.S. government's official web portal to all federal, state and local government web resources and services.